| time (UTC) | temp C | wind direction | speed KPH | gust KPH | rain 1hr cm | rain 24hr cm | rain mn cm | humidity % | barometer mb |
| 20260504160414 | 25 | 66 | 19.3 | 30.6 | 0.00 | 0.00 | 0.00 | 56 | 1012.0 |
| 20260504150413 | 22 | 65 | 20.9 | 32.2 | 0.00 | 0.00 | 0.00 | 70 | 1012.0 |
| 20260504140411 | 21 | 71 | 22.5 | 37.0 | 0.00 | 0.00 | 0.00 | 69 | 1012.0 |
| 20260504130409 | 18 | 74 | 20.9 | 41.8 | 0.00 | 0.00 | 0.00 | 77 | 1012.0 |
| 20260504110405 | 18 | 73 | 14.5 | 40.2 | 0.00 | 0.00 | 0.00 | 73 | 1011.0 |
| 20260504100403 | 17 | 73 | 12.9 | 40.2 | 0.00 | 0.00 | 0.00 | 73 | 1011.0 |
| 20260504081359 | 22 | 79 | 12.9 | 35.4 | 0.00 | 0.00 | 0.00 | 72 | 1011.0 |
| 20260504080358 | 18 | 79 | 12.9 | 35.4 | 0.00 | 0.00 | 0.00 | 71 | 1011.0 |
| 20260504070358 | 19 | 89 | 11.3 | 32.2 | 0.00 | 0.00 | 0.00 | 69 | 1012.0 |
| 20260504050354 | 22 | 107 | 11.3 | 29.0 | 0.00 | 0.00 | 0.00 | 65 | 1013.0 |
| 20260504045353 | 22 | 107 | 11.3 | 29.0 | 0.00 | 0.00 | 0.00 | 62 | 1013.0 |
| 20260504044353 | 22 | 107 | 11.3 | 29.0 | 0.00 | 0.00 | 0.00 | 61 | 1013.0 |
| 20260504043353 | 21 | 113 | 12.9 | 27.4 | 0.00 | 0.00 | 0.00 | 59 | 1013.0 |
| 20260504042353 | 22 | 113 | 12.9 | 27.4 | 0.00 | 0.00 | 0.00 | 59 | 1013.0 |
| 20260504041352 | 22 | 113 | 12.9 | 27.4 | 0.00 | 0.00 | 0.00 | 54 | 1013.0 |
| 20260504040352 | 23 | 113 | 12.9 | 27.4 | 0.00 | 0.00 | 0.00 | 54 | 1013.0 |
| 20260504035351 | 23 | 113 | 12.9 | 27.4 | 0.00 | 0.00 | 0.00 | 53 | 1013.0 |
| 20260504034351 | 23 | 113 | 12.9 | 27.4 | 0.00 | 0.00 | 0.00 | 53 | 1013.0 |
| 20260504033351 | 21 | 124 | 6.4 | 24.1 | 0.00 | 0.00 | 0.00 | 51 | 1013.0 |
| 20260504032351 | 22 | 124 | 6.4 | 24.1 | 0.00 | 0.00 | 0.00 | 50 | 1012.0 |
| 20260504031350 | 22 | 140 | 1.6 | 12.9 | 0.00 | 0.00 | 0.00 | 50 | 1012.0 |
| 20260504030350 | 23 | 140 | 1.6 | 12.9 | 0.00 | 0.00 | 0.00 | 50 | 1012.0 |
| 20260504025350 | 23 | 140 | 1.6 | 12.9 | 0.00 | 0.00 | 0.00 | 50 | 1012.0 |
| 20260504024349 | 23 | 140 | 1.6 | 12.9 | 0.00 | 0.00 | 0.00 | 50 | 1012.0 |
| 20260504023349 | 24 | 140 | 1.6 | 12.9 | 0.00 | 0.00 | 0.00 | 50 | 1011.0 |
| 20260504022349 | 24 | 140 | 1.6 | 12.9 | 0.00 | 0.00 | 0.00 | 50 | 1011.0 |
| 20260504021348 | 25 | 140 | 1.6 | 12.9 | 0.00 | 0.00 | 0.00 | 50 | 1011.0 |
| 20260504020348 | 21 | 140 | 1.6 | 12.9 | 0.00 | 0.00 | 0.00 | 44 | 1011.0 |
| 20260504015348 | 22 | 140 | 1.6 | 12.9 | 0.00 | 0.00 | 0.00 | 44 | 1011.0 |
| 20260504014348 | 21 | 140 | 1.6 | 12.9 | 0.00 | 0.00 | 0.00 | 45 | 1011.0 |
| 20260504013347 | 22 | 140 | 1.6 | 12.9 | 0.00 | 0.00 | 0.00 | 45 | 1011.0 |
| 20260504012347 | 22 | 107 | 1.6 | 16.1 | 0.00 | 0.00 | 0.00 | 45 | 1010.0 |
| 20260504011346 | 23 | 107 | 1.6 | 16.1 | 0.00 | 0.00 | 0.00 | 45 | 1010.0 |
| 20260504010346 | 24 | 107 | 1.6 | 16.1 | 0.00 | 0.00 | 0.00 | 45 | 1010.0 |
| 20260504005346 | 23 | 107 | 1.6 | 16.1 | 0.00 | 0.00 | 0.00 | 45 | 1010.0 |
| 20260504004346 | 24 | 107 | 1.6 | 16.1 | 0.00 | 0.00 | 0.00 | 45 | 1009.0 |
| 20260504003345 | 23 | 124 | 1.6 | 12.9 | 0.00 | 0.00 | 0.00 | 43 | 1009.0 |
| 20260504002345 | 25 | 124 | 1.6 | 12.9 | 0.00 | 0.00 | 0.00 | 42 | 1008.0 |
| 20260504001345 | 26 | 124 | 1.6 | 12.9 | 0.00 | 0.00 | 0.00 | 42 | 1008.0 |
| 20260504000346 | 27 | 124 | 3.2 | 14.5 | 0.00 | 0.00 | 0.00 | 42 | 1008.0 |
| 20260503235344 | 27 | 124 | 3.2 | 14.5 | 0.00 | 0.00 | 0.00 | 42 | 1008.0 |
| 20260503234344 | 25 | 97 | 8.0 | 17.7 | 0.00 | 0.00 | 0.00 | 41 | 1008.0 |
| 20260503233343 | 26 | 97 | 8.0 | 17.7 | 0.00 | 0.00 | 0.00 | 41 | 1008.0 |
| 20260503232343 | 27 | 97 | 8.0 | 17.7 | 0.00 | 0.00 | 0.00 | 41 | 1008.0 |
| 20260503231343 | 26 | 97 | 8.0 | 17.7 | 0.00 | 0.00 | 0.00 | 40 | 1008.0 |
| 20260503230343 | 27 | 97 | 8.0 | 17.7 | 0.00 | 0.00 | 0.00 | 40 | 1008.0 |
| 20260503225342 | 27 | 97 | 8.0 | 17.7 | 0.00 | 0.00 | 0.00 | 40 | 1008.0 |
| 20260503224342 | 26 | 97 | 8.0 | 17.7 | 0.00 | 0.00 | 0.00 | 40 | 1008.0 |
| 20260503223342 | 27 | 97 | 8.0 | 17.7 | 0.00 | 0.00 | 0.00 | 40 | 1008.0 |
| 20260503222341 | 27 | 98 | 9.7 | 19.3 | 0.00 | 0.00 | 0.00 | 40 | 1008.0 |
| 20260503221341 | 27 | 98 | 9.7 | 19.3 | 0.00 | 0.00 | 0.00 | 39 | 1008.0 |
| 20260503220341 | 28 | 98 | 9.7 | 19.3 | 0.00 | 0.00 | 0.00 | 39 | 1008.0 |
| 20260503215340 | 28 | 98 | 9.7 | 19.3 | 0.00 | 0.00 | 0.00 | 39 | 1008.0 |
| 20260503214340 | 28 | 98 | 9.7 | 19.3 | 0.00 | 0.00 | 0.00 | 39 | 1008.0 |
| 20260503213340 | 28 | 98 | 9.7 | 19.3 | 0.00 | 0.00 | 0.00 | 39 | 1008.0 |
| 20260503212339 | 28 | 99 | 8.0 | 17.7 | 0.00 | 0.00 | 0.00 | 39 | 1008.0 |
| 20260503211339 | 27 | 99 | 8.0 | 17.7 | 0.00 | 0.00 | 0.00 | 39 | 1008.0 |
| 20260503210339 | 28 | 99 | 8.0 | 17.7 | 0.00 | 0.00 | 0.00 | 40 | 1008.0 |
| 20260503205339 | 28 | 99 | 8.0 | 17.7 | 0.00 | 0.00 | 0.00 | 40 | 1008.0 |
| 20260503204338 | 29 | 99 | 8.0 | 17.7 | 0.00 | 0.00 | 0.00 | 40 | 1008.0 |
| 20260503203338 | 28 | 104 | 6.4 | 16.1 | 0.00 | 0.00 | 0.00 | 41 | 1008.0 |
| 20260503202338 | 30 | 104 | 6.4 | 16.1 | 0.00 | 0.00 | 0.00 | 41 | 1009.0 |
| 20260503201337 | 29 | 104 | 6.4 | 16.1 | 0.00 | 0.00 | 0.00 | 42 | 1009.0 |
| 20260503200337 | 27 | 104 | 6.4 | 16.1 | 0.00 | 0.00 | 0.00 | 41 | 1009.0 |
| 20260503195337 | 28 | 104 | 6.4 | 16.1 | 0.00 | 0.00 | 0.00 | 41 | 1009.0 |
| 20260503194336 | 30 | 104 | 6.4 | 16.1 | 0.00 | 0.00 | 0.00 | 41 | 1009.0 |
| 20260503193336 | 27 | 104 | 6.4 | 16.1 | 0.00 | 0.00 | 0.00 | 49 | 1009.0 |
| 20260503192336 | 28 | 91 | 8.0 | 14.5 | 0.00 | 0.00 | 0.00 | 47 | 1010.0 |
| 20260503191336 | 28 | 91 | 8.0 | 14.5 | 0.00 | 0.00 | 0.00 | 46 | 1010.0 |
| 20260503190335 | 28 | 91 | 8.0 | 14.5 | 0.00 | 0.00 | 0.00 | 46 | 1010.0 |
| 20260503185335 | 28 | 91 | 8.0 | 14.5 | 0.00 | 0.00 | 0.00 | 46 | 1010.0 |
| 20260503184335 | 27 | 91 | 8.0 | 14.5 | 0.00 | 0.00 | 0.00 | 46 | 1011.0 |
| 20260503183335 | 27 | 91 | 8.0 | 14.5 | 0.00 | 0.00 | 0.00 | 46 | 1011.0 |
| 20260503182334 | 27 | 80 | 11.3 | 16.1 | 0.00 | 0.00 | 0.00 | 52 | 1012.0 |
| 20260503181334 | 26 | 80 | 11.3 | 16.1 | 0.00 | 0.00 | 0.00 | 52 | 1012.0 |
| 20260503180334 | 26 | 80 | 11.3 | 16.1 | 0.00 | 0.00 | 0.00 | 52 | 1012.0 |
| 20260503175333 | 26 | 80 | 11.3 | 16.1 | 0.00 | 0.00 | 0.00 | 52 | 1012.0 |
| 20260503174333 | 26 | 80 | 11.3 | 16.1 | 0.00 | 0.00 | 0.00 | 52 | 1012.0 |
| 20260503173333 | 27 | 80 | 11.3 | 16.1 | 0.00 | 0.00 | 0.00 | 47 | 1012.0 |
| 20260503172333 | 26 | 71 | 14.5 | 17.7 | 0.00 | 0.00 | 0.00 | 52 | 1013.0 |
| 20260503171332 | 26 | 71 | 14.5 | 17.7 | 0.00 | 0.00 | 0.00 | 55 | 1013.0 |
| 20260503170332 | 25 | 71 | 14.5 | 17.7 | 0.00 | 0.00 | 0.00 | 55 | 1013.0 |